FW4702 Weather Reports


Display with metric or nautical units.
time (UTC)temp
F
wind
direction
speed
MPH
gust
MPH
rain 1hr
in
rain 24hr
in
rain mn
in
humidity
%
barometer
mb
20260831010556 76 0 0.0 0.0 0.00 0.00 0.00 90 1018.8
20260831010107 76 0 0.0 0.0 0.00 0.00 0.00 90 1018.8
20260831005556 77 0 0.0 0.0 0.00 0.00 0.00 89 1018.7
20260831005056 77 0 0.0 0.0 0.00 0.00 0.00 89 1018.6
20260831004605 77 0 0.0 0.0 0.00 0.00 0.00 89 1018.7
20260831004053 77 0 0.0 0.0 0.00 0.00 0.00 88 1018.7
20260831003554 77 0 0.0 0.0 0.00 0.00 0.00 89 1018.8
20260831003110 78 0 0.0 0.0 0.00 0.00 0.00 89 1018.8
20260831002553 78 0 0.0 0.0 0.00 0.00 0.00 89 1018.7
20260831002055 78 0 0.0 0.0 0.00 0.00 0.00 88 1018.7
20260831001607 78 0 0.0 0.0 0.00 0.00 0.00 87 1018.8
20260831001053 79 0 0.0 0.0 0.00 0.00 0.00 87 1018.9
20260831000554 79 0 0.0 0.0 0.00 0.00 0.00 87 1018.9
20260831000107 80 0 0.0 0.0 0.00 0.00 0.00 86 1018.9
20260830235554 80 0 0.0 0.0 0.00 0.00 0.00 86 1019.0
20260830235057 80 0 0.0 0.0 0.00 0.00 0.00 85 1018.9
20260830234612 80 0 0.0 0.0 0.00 0.00 0.00 83 1018.8
20260830234100 81 0 0.0 0.0 0.00 0.00 0.00 83 1018.8
20260830233554 81 0 0.0 1.0 0.00 0.00 0.00 81 1018.8
20260830233105 82 0 0.0 1.0 0.00 0.00 0.00 80 1018.8
20260830232556 82 0 0.0 1.0 0.00 0.00 0.00 78 1019.0
20260830232056 83 0 0.0 1.0 0.00 0.00 0.00 78 1018.9
20260830231612 83 0 0.0 1.0 0.00 0.00 0.00 75 1018.9
20260830231056 83 0 0.0 1.0 0.00 0.00 0.00 77 1019.0
20260830230556 83 0 0.0 2.0 0.00 0.00 0.00 76 1018.9
20260830230105 84 0 0.0 2.0 0.00 0.00 0.00 75 1019.0
20260830225556 85 188 0.0 2.0 0.00 0.00 0.00 73 1019.0
20260830225056 86 171 0.0 3.0 0.00 0.00 0.00 71 1018.8
20260830224608 86 182 1.0 3.0 0.00 0.00 0.00 67 1018.8
20260830224056 86 180 1.0 3.0 0.00 0.00 0.00 66 1018.8
20260830223556 86 198 1.0 3.0 0.00 0.00 0.00 67 1018.8
20260830223106 86 161 1.0 4.0 0.00 0.00 0.00 65 1018.8
20260830222554 86 182 1.0 4.0 0.00 0.00 0.00 66 1018.8
20260830222055 86 182 1.0 3.0 0.00 0.00 0.00 67 1018.7
20260830221604 86 0 0.0 4.0 0.00 0.00 0.00 69 1018.8
20260830221053 86 163 0.0 4.0 0.00 0.00 0.00 68 1018.9
20260830220556 87 192 0.0 2.0 0.00 0.00 0.00 64 1018.8
20260830220114 87 200 1.0 2.0 0.00 0.00 0.00 65 1018.8
20260830215558 87 135 0.0 2.0 0.00 0.00 0.00 63 1018.7
20260830215056 87 0 0.0 2.0 0.00 0.00 0.00 66 1018.9
20260830214608 87 0 0.0 3.0 0.00 0.00 0.00 66 1018.9
20260830214056 87 0 0.0 3.0 0.00 0.00 0.00 64 1018.9
20260830213556 87 173 1.0 3.0 0.00 0.00 0.00 64 1018.9
20260830213125 87 176 0.0 3.0 0.00 0.00 0.00 64 1018.9
20260830212558 87 185 1.0 3.0 0.00 0.00 0.00 67 1018.9
20260830212053 87 186 1.0 3.0 0.00 0.00 0.00 65 1018.9
20260830211605 87 185 1.0 4.0 0.00 0.00 0.00 66 1018.9
20260830211053 87 191 1.0 4.0 0.00 0.00 0.00 63 1018.9
20260830210558 87 179 1.0 3.0 0.00 0.00 0.00 64 1018.8
20260830210111 87 189 0.0 3.0 0.00 0.00 0.00 66 1019.1
20260830205556 88 175 1.0 3.0 0.00 0.00 0.00 65 1019.1
20260830205056 88 191 0.0 5.0 0.00 0.00 0.00 66 1019.3
20260830204612 88 46 1.0 5.0 0.00 0.00 0.00 62 1019.3
20260830204053 88 46 1.0 5.0 0.00 0.00 0.00 63 1019.2
20260830203553 87 90 0.0 3.0 0.00 0.00 0.00 65 1019.2
20260830203111 88 189 0.0 4.0 0.00 0.00 0.00 65 1019.2
20260830202556 88 0 2.0 4.0 0.00 0.00 0.00 65 1019.4
20260830202058 88 85 1.0 5.0 0.00 0.00 0.00 63 1019.4
20260830201613 88 53 0.0 5.0 0.00 0.00 0.00 62 1019.4
20260830201056 88 57 0.0 5.0 0.00 0.00 0.00 64 1019.5
20260830200553 88 173 0.0 4.0 0.00 0.00 0.00 63 1019.5
20260830200112 87 0 2.0 4.0 0.00 0.00 0.00 66 1019.7
20260830195556 87 30 2.0 5.0 0.00 0.00 0.00 64 1019.7
20260830195055 88 75 1.0 5.0 0.00 0.00 0.00 63 1019.8
20260830194611 88 45 2.0 5.0 0.00 0.00 0.00 61 1019.9
20260830194053 88 19 0.0 3.0 0.00 0.00 0.00 65 1020.0
20260830193553 88 0 0.0 3.0 0.00 0.00 0.00 67 1020.0
20260830193057 88 196 1.0 4.0 0.00 0.00 0.00 66 1019.9
20260830192556 88 177 1.0 4.0 0.00 0.00 0.00 67 1020.0
20260830192053 88 196 1.0 4.0 0.00 0.00 0.00 67 1020.1
20260830191616 87 0 1.0 4.0 0.00 0.00 0.00 68 1020.1
20260830191053 87 256 1.0 4.0 0.00 0.00 0.00 67 1020.1
20260830190556 87 138 0.0 4.0 0.00 0.00 0.00 67 1020.3
20260830190106 87 88 2.0 4.0 0.00 0.00 0.00 66 1020.3
20260830185558 87 0 0.0 5.0 0.00 0.00 0.00 69 1020.4
20260830185056 87 186 2.0 5.0 0.00 0.00 0.00 68 1020.4
20260830184607 87 158 1.0 4.0 0.00 0.00 0.00 67 1020.5
20260830184056 87 184 1.0 4.0 0.00 0.00 0.00 69 1020.6
20260830183555 87 65 1.0 4.0 0.00 0.00 0.00 65 1020.6
20260830183107 87 170 1.0 6.0 0.00 0.00 0.00 69 1020.7
20260830182553 87 191 1.0 6.0 0.00 0.00 0.00 69 1020.7
20260830182057 86 176 2.0 6.0 0.00 0.00 0.00 67 1020.8
20260830181606 86 173 1.0 4.0 0.00 0.00 0.00 69 1020.9
20260830181058 86 163 2.0 4.0 0.00 0.00 0.00 70 1021.0
20260830180556 87 0 1.0 5.0 0.00 0.00 0.00 68 1021.0
20260830180104 86 177 1.0 5.0 0.00 0.00 0.00 69 1021.0
20260830175553 86 182 1.0 6.0 0.00 0.00 0.00 69 1021.1
20260830175055 86 0 0.0 6.0 0.00 0.00 0.00 72 1021.1
20260830174608 86 170 1.0 6.0 0.00 0.00 0.00 71 1021.2
20260830174102 86 148 1.0 4.0 0.00 0.00 0.00 73 1021.2
20260830173559 86 188 1.0 5.0 0.00 0.00 0.00 70 1021.3
20260830173110 86 179 2.0 5.0 0.00 0.00 0.00 69 1021.3
20260830172555 86 177 0.0 5.0 0.00 0.00 0.00 71 1021.2
20260830172053 86 199 1.0 4.0 0.00 0.00 0.00 71 1021.3
20260830171609 86 89 1.0 4.0 0.00 0.00 0.00 70 1021.3
20260830171054 85 208 1.0 4.0 0.00 0.00 0.00 74 1021.4
20260830170557 85 192 1.0 3.0 0.00 0.00 0.00 75 1021.6
20260830170107 85 171 1.0 4.0 0.00 0.00 0.00 75 1021.7
20260830165556 85 173 1.0 4.0 0.00 0.00 0.00 75 1021.6
20260830165053 85 186 1.0 4.0 0.00 0.00 0.00 75 1021.6
20260830164602 84 190 2.0 4.0 0.00 0.00 0.00 76 1021.7
20260830164055 84 191 2.0 4.0 0.00 0.00 0.00 76 1021.9
20260830163559 84 192 1.0 4.0 0.00 0.00 0.00 79 1021.9
20260830163106 82 193 0.0 3.0 0.00 0.00 0.00 80 1022.0
20260830162556 83 0 1.0 3.0 0.00 0.00 0.00 76 1022.0
20260830162053 83 187 0.0 2.0 0.00 0.00 0.00 78 1022.0
20260830161627 82 191 1.0 3.0 0.00 0.00 0.00 79 1021.9
20260830161059 82 211 1.0 3.0 0.00 0.00 0.00 79 1021.8
20260830160558 82 180 1.0 4.0 0.00 0.00 0.00 80 1022.0
20260830155553 82 0 1.0 6.0 0.00 0.00 0.00 79 1022.2
20260830155053 83 172 1.0 6.0 0.00 0.00 0.00 79 1022.1
20260830154557 83 82 2.0 6.0 0.00 0.00 0.00 78 1022.2
20260830154056 83 192 0.0 5.0 0.00 0.00 0.00 80 1022.1
20260830153553 83 202 1.0 5.0 0.00 0.00 0.00 79 1022.1
20260830153108 82 0 1.0 3.0 0.00 0.00 0.00 82 1022.0
20260830152555 82 181 0.0 4.0 0.00 0.00 0.00 82 1022.1
20260830152056 82 204 0.0 4.0 0.00 0.00 0.00 83 1022.2
20260830151611 82 205 0.0 3.0 0.00 0.00 0.00 83 1022.3
20260830151057 82 0 1.0 3.0 0.00 0.00 0.00 81 1022.2
20260830150556 82 157 0.0 3.0 0.00 0.00 0.00 82 1022.2
20260830150104 81 167 1.0 4.0 0.00 0.00 0.00 83 1022.1
20260830145556 82 169 1.0 4.0 0.00 0.00 0.00 82 1022.1
20260830145056 82 175 0.0 3.0 0.00 0.00 0.00 83 1022.2
20260830144620 82 66 1.0 3.0 0.00 0.00 0.00 83 1022.1
20260830144056 81 42 0.0 2.0 0.00 0.00 0.00 84 1021.9
20260830143558 81 190 0.0 2.0 0.00 0.00 0.00 85 1022.0
20260830143111 81 181 1.0 2.0 0.00 0.00 0.00 84 1022.0
20260830142554 81 0 0.0 2.0 0.00 0.00 0.00 85 1022.1
20260830142055 80 0 0.0 4.0 0.00 0.00 0.00 85 1022.1
20260830141613 80 181 1.0 4.0 0.00 0.00 0.00 84 1022.2
20260830141056 80 169 0.0 4.0 0.00 0.00 0.00 85 1022.2
20260830140557 80 54 0.0 4.0 0.00 0.00 0.00 85 1022.2
20260830140106 80 171 1.0 3.0 0.00 0.00 0.00 86 1022.2
20260830135556 80 172 0.0 3.0 0.00 0.00 0.00 86 1022.1
20260830135056 80 0 0.0 2.0 0.00 0.00 0.00 88 1022.1
20260830134601 79 0 0.0 2.0 0.00 0.00 0.00 88 1022.1
20260830134058 79 0 0.0 2.0 0.00 0.00 0.00 88 1022.0
20260830133556 79 0 0.0 1.0 0.00 0.00 0.00 88 1022.0
20260830133109 78 0 0.0 1.0 0.00 0.00 0.00 89 1021.8
20260830132555 78 0 0.0 2.0 0.00 0.00 0.00 90 1021.8
20260830132053 77 0 0.0 2.0 0.00 0.00 0.00 91 1021.6
20260830131606 77 0 0.0 2.0 0.00 0.00 0.00 92 1021.6
20260830131056 77 189 0.0 2.0 0.00 0.00 0.00 93 1021.6
20260830130556 76 0 0.0 2.0 0.00 0.00 0.00 94 1021.5
20260830130115 76 0 0.0 1.0 0.00 0.00 0.00 95 1021.5
20260830125557 75 0 0.0 1.0 0.00 0.00 0.00 95 1021.5
20260830125056 75 0 0.0 1.0 0.00 0.00 0.00 96 1021.4
20260830124602 75 0 0.0 1.0 0.00 0.00 0.00 97 1021.5
20260830124102 74 0 0.0 1.0 0.00 0.00 0.00 97 1021.5
20260830123556 74 0 0.0 0.0 0.00 0.00 0.00 97 1021.5
20260830123106 73 0 0.0 0.0 0.00 0.00 0.00 98 1021.4
20260830122556 73 0 0.0 0.0 0.00 0.00 0.00 98 1021.3
20260830122058 73 0 0.0 0.0 0.00 0.00 0.00 98 1021.3
20260830121607 72 0 0.0 0.0 0.00 0.00 0.00 98 1021.1
20260830121056 72 0 0.0 0.0 0.00 0.00 0.00 98 1021.1
20260830120556 72 0 0.0 0.0 0.00 0.00 0.00 98 1021.0
20260830115557 72 0 0.0 0.0 0.00 0.00 0.00 98 1021.0
20260830115056 71 0 0.0 0.0 0.00 0.00 0.00 97 1020.9
20260830114615 71 0 0.0 0.0 0.00 0.00 0.00 97 1021.0
20260830114055 71 0 0.0 0.0 0.00 0.00 0.00 97 1021.1
20260830113559 71 0 0.0 0.0 0.00 0.00 0.00 97 1021.1
20260830113058 72 0 0.0 0.0 0.00 0.00 0.00 97 1021.1
20260830112555 72 0 0.0 0.0 0.00 0.00 0.00 98 1021.0
20260830112057 71 0 0.0 0.0 0.00 0.00 0.00 97 1021.0
20260830111607 71 0 0.0 1.0 0.00 0.00 0.00 97 1020.9
20260830111057 72 0 0.0 1.0 0.00 0.00 0.00 97 1020.8
20260830110556 72 0 0.0 1.0 0.00 0.00 0.00 98 1020.7
20260830110105 72 0 0.0 0.0 0.00 0.00 0.00 98 1020.6
20260830105556 72 0 0.0 0.0 0.00 0.00 0.00 98 1020.5
20260830105055 71 0 0.0 0.0 0.00 0.00 0.00 98 1020.5
20260830104609 71 0 0.0 0.0 0.00 0.00 0.00 98 1020.5
20260830104056 71 0 0.0 0.0 0.00 0.00 0.00 98 1020.2
20260830103600 71 0 0.0 0.0 0.00 0.00 0.00 97 1020.4
20260830103123 71 0 0.0 0.0 0.00 0.00 0.00 97 1020.3
20260830102556 71 0 0.0 0.0 0.00 0.00 0.00 97 1020.3
20260830102055 71 0 0.0 0.0 0.00 0.00 0.00 97 1020.4
20260830101618 71 0 0.0 0.0 0.00 0.00 0.00 97 1020.3
20260830101056 71 0 0.0 0.0 0.00 0.00 0.00 97 1020.2
20260830100556 71 0 0.0 0.0 0.00 0.00 0.00 97 1020.2
20260830100120 71 0 0.0 0.0 0.00 0.00 0.00 97 1020.1
20260830095556 71 0 0.0 0.0 0.00 0.00 0.00 97 1020.2
20260830095056 71 0 0.0 0.0 0.00 0.00 0.00 97 1020.0
20260830094613 71 0 0.0 0.0 0.00 0.00 0.00 97 1020.0
20260830094055 71 0 0.0 0.0 0.00 0.00 0.00 97 1020.0
20260830093555 71 0 0.0 0.0 0.00 0.00 0.00 97 1020.0
20260830093107 71 0 0.0 0.0 0.00 0.00 0.00 97 1020.0
20260830092556 71 0 0.0 0.0 0.00 0.00 0.00 97 1020.1
20260830092056 71 0 0.0 0.0 0.00 0.00 0.00 97 1020.1
20260830091607 72 0 0.0 0.0 0.00 0.00 0.00 97 1020.0
20260830091056 72 0 0.0 1.0 0.00 0.00 0.00 97 1020.0
20260830090557 72 0 0.0 1.0 0.00 0.00 0.00 97 1019.9
20260830090106 72 189 0.0 1.0 0.00 0.00 0.00 97 1019.8
20260830085555 72 0 0.0 0.0 0.00 0.00 0.00 97 1020.0
20260830085057 72 0 0.0 0.0 0.00 0.00 0.00 97 1019.9
20260830084604 71 0 0.0 0.0 0.00 0.00 0.00 97 1019.9
20260830084056 72 0 0.0 0.0 0.00 0.00 0.00 97 1019.9
20260830083556 72 0 0.0 0.0 0.00 0.00 0.00 97 1019.8
20260830083123 72 0 0.0 0.0 0.00 0.00 0.00 97 1019.8
20260830082556 72 0 0.0 0.0 0.00 0.00 0.00 97 1019.8
20260830082055 72 0 0.0 0.0 0.00 0.00 0.00 97 1019.8
20260830081640 72 0 0.0 0.0 0.00 0.00 0.00 97 1019.7
20260830081055 72 0 0.0 0.0 0.00 0.00 0.00 97 1020.0
20260830080555 72 0 0.0 0.0 0.00 0.00 0.00 97 1020.0
20260830080105 72 0 0.0 0.0 0.00 0.00 0.00 97 1019.9
20260830075556 72 0 0.0 0.0 0.00 0.00 0.00 97 1019.9
20260830075056 72 0 0.0 0.0 0.00 0.00 0.00 97 1019.8
20260830074608 72 0 0.0 0.0 0.00 0.00 0.00 97 1019.8
20260830074056 72 0 0.0 0.0 0.00 0.00 0.00 97 1019.7
20260830073556 72 0 0.0 0.0 0.00 0.00 0.00 97 1019.7
20260830073058 72 0 0.0 0.0 0.00 0.00 0.00 96 1019.8
20260830072557 72 0 0.0 0.0 0.00 0.00 0.00 97 1019.7
20260830072056 72 0 0.0 0.0 0.00 0.00 0.00 97 1019.8
20260830071607 72 0 0.0 0.0 0.00 0.00 0.00 97 1019.9
20260830071057 72 0 0.0 0.0 0.00 0.00 0.00 97 1020.0
20260830070558 72 0 0.0 0.0 0.00 0.00 0.00 97 1019.9
20260830070106 72 0 0.0 0.0 0.00 0.00 0.00 96 1019.8
20260830065556 72 0 0.0 0.0 0.00 0.00 0.00 96 1019.8
20260830065053 72 0 0.0 0.0 0.00 0.00 0.00 97 1019.8
20260830064603 72 0 0.0 0.0 0.00 0.00 0.00 96 1019.8
20260830064056 72 0 0.0 0.0 0.00 0.00 0.00 96 1019.9
20260830063553 72 0 0.0 0.0 0.00 0.00 0.00 96 1019.9
20260830063135 72 0 0.0 0.0 0.00 0.00 0.00 96 1020.0
20260830062559 72 0 0.0 0.0 0.00 0.00 0.00 96 1020.1
20260830062056 72 0 0.0 0.0 0.00 0.00 0.00 97 1020.0
20260830061604 72 0 0.0 0.0 0.00 0.00 0.00 96 1019.9
20260830061056 72 0 0.0 0.0 0.00 0.00 0.00 96 1019.9
20260830060556 72 0 0.0 0.0 0.00 0.00 0.00 96 1019.9
20260830060101 72 0 0.0 0.0 0.00 0.00 0.00 96 1019.8
20260830055558 72 0 0.0 0.0 0.00 0.00 0.00 96 1019.8
20260830055056 72 0 0.0 0.0 0.00 0.00 0.00 96 1020.0
20260830054605 72 0 0.0 0.0 0.00 0.00 0.00 96 1020.0
20260830054055 73 0 0.0 0.0 0.00 0.00 0.00 96 1020.1
20260830053555 72 0 0.0 0.0 0.00 0.00 0.00 96 1020.1
20260830053107 72 0 0.0 0.0 0.00 0.00 0.00 96 1020.0
20260830052556 72 0 0.0 0.0 0.00 0.00 0.00 96 1020.1
20260830052056 73 0 0.0 0.0 0.00 0.00 0.00 96 1020.1
20260830051602 73 0 0.0 0.0 0.00 0.00 0.00 96 1020.1
20260830051056 73 0 0.0 0.0 0.00 0.00 0.00 96 1020.1
20260830050556 73 0 0.0 0.0 0.00 0.00 0.00 96 1020.1
20260830050108 73 0 0.0 0.0 0.00 0.00 0.00 96 1020.1
20260830045556 73 0 0.0 0.0 0.00 0.00 0.00 95 1020.1
20260830045056 73 0 0.0 0.0 0.00 0.00 0.00 95 1020.0
20260830044613 73 0 0.0 0.0 0.00 0.00 0.00 96 1020.1
20260830044056 73 0 0.0 0.0 0.00 0.00 0.00 96 1020.1
20260830043556 73 0 0.0 0.0 0.00 0.00 0.00 96 1020.2
20260830043121 73 0 0.0 0.0 0.00 0.00 0.00 95 1020.3
20260830042556 73 0 0.0 0.0 0.00 0.00 0.00 95 1020.3
20260830042056 73 0 0.0 0.0 0.00 0.00 0.00 95 1020.2
20260830041634 73 0 0.0 0.0 0.00 0.00 0.00 95 1020.2
20260830041055 73 0 0.0 0.0 0.00 0.00 0.00 95 1020.1
20260830040553 73 0 0.0 0.0 0.00 0.00 0.00 95 1020.1
20260830040119 73 0 0.0 0.0 0.00 0.00 0.00 95 1020.1
20260830035556 73 0 0.0 0.0 0.00 0.00 0.00 95 1020.0
20260830035056 73 0 0.0 0.0 0.00 0.00 0.00 95 1020.0
20260830034611 73 0 0.0 0.0 0.00 0.00 0.00 95 1020.1
20260830034056 73 0 0.0 0.0 0.00 0.00 0.00 95 1020.1
20260830033556 73 0 0.0 0.0 0.00 0.00 0.00 95 1020.1
20260830033123 74 0 0.0 0.0 0.00 0.00 0.00 95 1020.1
20260830032557 74 0 0.0 0.0 0.00 0.00 0.00 94 1019.9
20260830032055 74 0 0.0 0.0 0.00 0.00 0.00 94 1019.9
20260830031610 74 0 0.0 0.0 0.00 0.00 0.00 94 1019.9
20260830031055 74 0 0.0 0.0 0.00 0.00 0.00 94 1020.0
20260830030556 74 0 0.0 0.0 0.00 0.00 0.00 94 1020.0
20260830025556 74 0 0.0 0.0 0.00 0.00 0.00 94 1019.9
20260830025055 74 0 0.0 0.0 0.00 0.00 0.00 94 1019.9
20260830024559 74 0 0.0 0.0 0.00 0.00 0.00 94 1019.9
20260830024057 74 0 0.0 0.0 0.00 0.00 0.00 94 1019.9
20260830023555 74 0 0.0 0.0 0.00 0.00 0.00 94 1019.8
20260830023104 74 0 0.0 0.0 0.00 0.00 0.00 93 1019.8
20260830022555 74 0 0.0 0.0 0.00 0.00 0.00 93 1019.7
20260830022054 75 0 0.0 0.0 0.00 0.00 0.00 93 1019.5
20260830021612 74 0 0.0 0.0 0.00 0.00 0.00 93 1019.5
20260830021057 75 0 0.0 0.0 0.00 0.00 0.00 93 1019.5
20260830020600 75 0 0.0 0.0 0.00 0.00 0.00 93 1019.5
20260830020113 75 0 0.0 0.0 0.00 0.00 0.00 93 1019.5
20260830015651 75 0 0.0 0.0 0.00 0.00 0.00 92 1019.5
20260830015102 75 0 0.0 0.0 0.00 0.00 0.00 92 1019.4
20260830014604 75 0 0.0 0.0 0.00 0.00 0.00 92 1019.3
20260830014056 75 0 0.0 0.0 0.00 0.00 0.00 91 1019.3
20260830013555 76 0 0.0 0.0 0.00 0.00 0.00 91 1019.4
20260830013104 76 0 0.0 0.0 0.00 0.00 0.00 91 1019.4
20260830012557 76 0 0.0 0.0 0.00 0.00 0.00 91 1019.3
20260830012058 76 0 0.0 0.0 0.00 0.00 0.00 91 1019.1
20260830011602 76 0 0.0 0.0 0.00 0.00 0.00 90 1019.0
20260830011057 76 0 0.0 0.0 0.00 0.00 0.00 89 1018.9